Weather History for Cape Newenham, AK

Change the Weather History Date:

Friday, September 20, 2013

  Actual Average Record
Temperature  
Mean Temperature 40 °F -  
Max Temperature 46 °F 46 °F 55 °F (2000)
Min Temperature 35 °F 40 °F 35 °F (2013)
Degree Days  
Heating Degree Days 24    
Moisture  
Dew Point 39 °F    
Average Humidity 89    
Maximum Humidity 96    
Minimum Humidity 68    
Precipitation  
Precipitation 0.55 in - - ()
Sea Level Pressure  
Sea Level Pressure 29.31 in    
Wind  
Wind Speed 11 mph (SE)    
Max Wind Speed 22 mph    
Max Gust Speed 36 mph    
Visibility 9 miles    
Events Rain , Thunderstorm    
Averages and records for this station are not official NWS values.
T = Trace of Precipitation, MM = Missing Value Source: NWS Daily Summary

Daily Weather History Graph

Daily Weather History Graph

Search for Another Location

Airport:

Trip Planner

Search our weather history database for the weather conditions in past years. The results will help you decide how hot, cold, wet, or windy it might be!

Date:

Astronomy

Sep. 20, 2013 Rise Set
Actual Time 8:29 AM AKDT 8:52 PM AKDT
Civil Twilight 7:49 AM AKDT 9:31 PM AKDT
Nautical Twilight 7:01 AM AKDT 10:20 PM AKDT
Astronomical Twilight 6:08 AM AKDT 11:12 PM AKDT
Moon 8:57 PM AKDT (9/20) 10:27 AM AKDT (9/20)
Length of Visible Light 13h 42m
Length of Day
12h 22m
Full, 98% of the Moon is Illuminated
Sep 20
Full
Sep 26
Last Quarter
Oct 4
New
Oct 11
First Quarter
Oct 18
Full

Hourly Weather History & Observations

Time (AKDT) Temp. Windchill Dew Point Humidity Pressure Visibility Wind Dir Wind Speed Gust Speed Precip Events Conditions
12:55 AM 44.8 °F - 40.6 °F 85% 29.70 in 10.0 mi East 2.3 mph - N/A   Mostly Cloudy
1:55 AM 43.7 °F 39.7 °F 40.3 °F 88% 29.68 in 10.0 mi South 6.9 mph - N/A   Mostly Cloudy
2:55 AM 44.4 °F 41.2 °F 40.8 °F 87% 29.66 in 10.0 mi South 5.8 mph - N/A   Mostly Cloudy
3:55 AM 45.1 °F 40.8 °F 42.1 °F 89% 29.64 in 10.0 mi South 8.1 mph - N/A   Mostly Cloudy
4:55 AM 45.1 °F 39.5 °F 42.6 °F 91% 29.62 in 10.0 mi South 11.5 mph - N/A   Mostly Cloudy
5:55 AM 45.7 °F 39.8 °F 43.0 °F 90% 29.58 in 10.0 mi South 12.7 mph - N/A   Overcast
6:55 AM 46.4 °F 41.9 °F 43.3 °F 89% 29.54 in 10.0 mi SSE 9.2 mph - N/A   Mostly Cloudy
7:55 AM 45.5 °F 39.9 °F 43.2 °F 92% 29.50 in 10.0 mi South 11.5 mph - N/A   Overcast
8:55 AM 45.7 °F 38.8 °F 43.0 °F 90% 29.46 in 10.0 mi SE 16.1 mph - N/A   Light Drizzle
9:55 AM 45.5 °F 38.6 °F 42.3 °F 88% 29.44 in 3.0 mi SE 16.1 mph 24.2 mph 0.07 in Rain Rain
10:55 AM 46.2 °F 39.3 °F 43.0 °F 88% 29.39 in 3.0 mi SE 17.3 mph 25.3 mph 0.10 in Rain Rain Showers
11:55 AM 44.6 °F 37.2 °F 42.8 °F 93% 29.32 in 8.0 mi SE 17.3 mph 24.2 mph 0.08 in Rain Light Rain
12:55 PM 43.7 °F 35.0 °F 41.7 °F 93% 29.25 in 3.0 mi SE 21.9 mph 35.7 mph 0.06 in Rain , Thunderstorm Light Rain
1:55 PM 44.4 °F 36.9 °F 42.6 °F 93% 29.20 in 4.0 mi ESE 17.3 mph 27.6 mph 0.09 in Rain Light Rain
2:55 PM 43.3 °F 34.7 °F 41.0 °F 91% 29.13 in 10.0 mi SE 20.7 mph 35.7 mph 0.05 in Rain Light Rain
3:55 PM 41.5 °F 33.2 °F 39.7 °F 93% 29.09 in 10.0 mi ESE 17.3 mph 32.2 mph 0.02 in Rain Light Rain
4:55 PM 39.9 °F 31.4 °F 37.8 °F 92% 29.06 in 10.0 mi East 16.1 mph 26.5 mph 0.02 in Rain Light Rain
5:55 PM 38.1 °F 28.4 °F 36.1 °F 93% 29.05 in 10.0 mi East 18.4 mph 28.8 mph 0.02 in Rain Light Rain
6:55 PM 36.1 °F 25.9 °F 35.1 °F 96% 29.03 in 10.0 mi East 18.4 mph 26.5 mph 0.04 in Rain Light Rain
7:55 PM 35.4 °F 26.4 °F 34.3 °F 96% 29.02 in 10.0 mi ENE 13.8 mph 23.0 mph 0.00 in Rain Light Rain
8:55 PM 36.7 °F 26.6 °F 34.5 °F 92% 29.01 in 10.0 mi NE 18.4 mph 23.0 mph N/A Rain Light Rain
9:55 PM 38.8 °F 32.1 °F 33.8 °F 82% 29.02 in 10.0 mi ENE 10.4 mph - 0.00 in   Overcast
10:55 PM 39.9 °F 33.9 °F 31.8 °F 73% 29.03 in 10.0 mi East 9.2 mph - N/A   Mostly Cloudy
11:55 PM 41.2 °F 38.2 °F 31.3 °F 68% 29.04 in 10.0 mi South 4.6 mph - N/A   Overcast